Weather in Novovoroncovka

Ukraine / Kherson District     47˚30′17″N   33˚55′23″E
temp.,
°C
wind,
m/s
gust,
m/s
humid.,
%
clouds,
%
prec.,
mm/h
press.,
hPa
HPBL,
m
2 december, wed
wed223:00+4˚ene7987100 0.4 1024574
02:00+5˚e7985100 0.6 1024585
05:00+4˚e788198 0.1 1024616
08:00+4˚e788299 0.1 1025595
11:00+4˚e6780100 0.1 1026635
14:00+4˚ene6783100 0.3 1024592
17:00+4˚ene7880100 0.1 1026670
20:00+4˚e6776100 0.1 1026644
3 december, thu
thu323:00+4˚e6781100 0.1 1026525
02:00+4˚e5784100 0.1 1026464
05:00+5˚e5688100 0.1 1025366
08:00+5˚ese568899 0.1 1026363
11:00+6˚ese5684100 0.0 1025405
14:00+7˚ese5780100 0.0 1025529
17:00+6˚ese6884100 0.0 1025471
20:00+5˚ese798593 0.0 1025499
4 december, fri
fri423:00+5˚ese898595 0.0 1025497
02:00+4˚ese7109092 0.0 1025382
05:00+4˚ese7109181 0.0 1024406
08:00+3˚ese8109087 0.0 1025458
11:00+4˚ese898899 0.0 1025538
14:00+6˚e788099 0.0 1024616
17:00+6˚e8128167 0.0 1025583
20:00+4˚e9128449 0.0 1026592
5 december, sat
sat523:00+4˚e8128546 0.0 1026573
02:00+4˚e9128546 0.0 1026552
05:00+4˚e9128445 0.0 1026591
08:00+2˚e9108168 0.0 1027639
11:00+2˚e8980100 0.0 1027658
14:00+3˚e8977100 0.0 1027804
17:00+3˚e91172100 0.0 1027863
20:00+2˚ese9126960 0.0 1028776
6 december, sun
sun623:00+1˚e911660 0.0 1029675
02:00+1˚e911680 0.0 1029660
05:00e911690 0.0 1029637
08:00e912700 0.0 1029636
11:00+1˚e912660 0.0 1029678
14:00+3˚e911620 0.0 1028744
17:00+3˚e1013550 0.0 1028728
20:00+1˚e1014540 0.0 1029657